[[{"header":{"parameterUnit":"m.s-1","parameterCategory":1,"la1":30.2991,"la2":30.254,"lo1":-89.0895,"lo2":-89.0444,"dy":0.0017,"dx":0.0017,"nx":28,"ny":28,"refTime":"2024-07-14T09:00:00:Z","depth":0,"parameterNumber":2,"parameterNumberName":"U-component_of_WINDS"},"data":[0,0,0,0,0,0,0,0,0,0,0,0,0,0,0,0,0,0,0,0,0,0,0,0,0,0,0,0,0,0,0,0,0,0,0,0,0,0,0,0,0,0,0,0,0,0,0,0,0,0,0,0,0,0,0,0,0,0,-0.3984,-0.3984,0,-0.4025,-0.4025,-0.4026,-0.4051,-0.4051,-0.4051,-0.4051,-0.409,-0.4091,-0.4092,0,0,0,0,0,0,0,0,0,0,0,0,0,-0.3925,-0.3926,-0.3984,-0.3984,-0.3985,-0.4025,-0.4025,-0.4026,-0.4051,-0.4051,-0.4051,-0.4052,-0.409,-0.4091,-0.4092,0,0,0,0,0,0,0,0,0,0,0,0,0,-0.3956,-0.3926,-0.3984,-0.4002,-0.4004,-0.4024,-0.4025,-0.4026,-0.4051,-0.4051,-0.4051,-0.4052,-0.4089,-0.4091,-0.4092,-0.4096,0,0,-0.4096,-0.4097,0,0,0,0,0,0,0,0,-0.3955,-0.3959,-0.3999,-0.4001,-0.4003,-0.4033,-0.4019,-0.4049,-0.4051,-0.4033,-0.4051,-0.4052,-0.4071,-0.4074,-0.4081,-0.4098,-0.4099,-0.4096,-0.4097,-0.4098,-0.4098,0,0,0,0,0,0,0,-0.3952,-0.3957,-0.4,-0.4,-0.4002,-0.4008,-0.4012,-0.4024,-0.405,-0.4035,-0.4037,-0.4041,-0.4072,-0.4079,-0.4082,-0.41,-0.4096,-0.4097,-0.4098,-0.4099,-0.4122,-0.4122,0,0,0,0,0,0,-0.3948,-0.3955,-0.3999,-0.4001,-0.3979,-0.4009,-0.4014,-0.4023,-0.405,-0.4054,-0.4041,-0.4042,-0.4077,-0.408,-0.4083,-0.4089,-0.4098,-0.4099,-0.41,-0.4122,-0.4122,-0.4122,0,0,0,0,0,0,-0.3946,-0.3951,-0.3997,-0.3979,-0.3985,-0.4009,-0.402,-0.4024,-0.4031,-0.4055,-0.4059,-0.4044,-0.4077,-0.4081,-0.4093,-0.4091,-0.4099,-0.4101,-0.4122,-0.4122,-0.4122,-0.4101,0,0,0,0,0,0,-0.3944,-0.3951,-0.3953,-0.3978,-0.3986,-0.4006,-0.402,-0.4025,-0.4034,-0.4036,-0.4059,-0.4063,-0.4078,-0.4091,-0.4094,-0.4093,-0.4102,-0.4122,-0.4122,-0.4122,-0.4102,-0.4101,-0.4099,0,0,0,0,0,-0.3942,-0.3945,-0.3953,-0.3958,-0.3989,-0.4006,-0.401,-0.4028,-0.4034,-0.4036,-0.4051,-0.4062,-0.4091,-0.4091,-0.4096,-0.4095,-0.4123,-0.4122,-0.4122,-0.4103,-0.4101,-0.4099,0,0,0,0,0,0,-0.3917,-0.3948,-0.3958,-0.3969,-0.3985,-0.4011,-0.4014,-0.4025,-0.4039,-0.404,-0.4061,-0.4066,-0.4075,-0.4086,-0.4087,-0.41,-0.4108,-0.4108,-0.4092,-0.409,-0.4089,-0.4086,-0.4103,0,0,0,0,0,-0.3913,-0.3925,-0.3952,-0.3959,-0.3967,-0.3989,-0.3997,-0.401,-0.4026,-0.4033,-0.4049,-0.4064,-0.4077,-0.4084,-0.4097,-0.4104,-0.4109,-0.4106,-0.4104,-0.4103,-0.4103,-0.4107,-0.4106,-0.412,-0.412,-0.412,0,0,-0.3904,-0.3923,-0.3929,-0.3954,-0.3968,-0.398,-0.3994,-0.4005,-0.4014,-0.4034,-0.4046,-0.4059,-0.4077,-0.4086,-0.4091,-0.4096,-0.41,-0.4102,-0.4101,-0.4102,-0.4107,-0.4105,-0.4104,-0.412,-0.412,-0.412,0,0,-0.3894,-0.391,-0.3918,-0.3932,-0.3953,-0.3968,-0.397,-0.3994,-0.4003,-0.4016,-0.4032,-0.4042,-0.4063,-0.4075,-0.4084,-0.408,-0.409,-0.4083,-0.4074,-0.4078,-0.4077,-0.4076,-0.4074,-0.4073,-0.4083,-0.4083,-0.4083,0,-0.388,-0.3899,-0.392,-0.3931,-0.3941,-0.3962,-0.3969,-0.3981,-0.4005,-0.4011,-0.4017,-0.4044,-0.4057,-0.407,-0.4069,-0.4076,-0.4078,-0.408,-0.4076,-0.4075,-0.4074,-0.4073,-0.4072,-0.4082,-0.4082,-0.4082,-0.4082,0,-0.3881,-0.3894,-0.3897,-0.3921,-0.3932,-0.3941,-0.3962,-0.3971,-0.3982,-0.3996,-0.4009,-0.4026,-0.4043,-0.4047,-0.4058,-0.4062,-0.4064,-0.4072,-0.408,-0.4072,-0.407,-0.407,-0.408,-0.4081,-0.4081,-0.4081,0,0,-0.3855,-0.3891,-0.3892,-0.3903,-0.3929,-0.3938,-0.3948,-0.3966,-0.3972,-0.3988,-0.3997,-0.4015,-0.4023,-0.4033,-0.4046,-0.405,-0.4045,-0.4058,-0.4058,-0.4054,-0.4049,-0.4042,-0.4041,-0.4052,-0.4052,-0.4052,-0.4047,0,-0.3848,-0.3868,-0.3887,-0.39,-0.3911,-0.3932,-0.394,-0.3956,-0.397,-0.3981,-0.3996,-0.4008,-0.4018,-0.4024,-0.4029,-0.4044,-0.4044,-0.4045,-0.4059,-0.406,-0.4054,-0.404,-0.4033,-0.4027,-0.4047,-0.4047,-0.4047,0,-0.3843,-0.3859,-0.3873,-0.3898,-0.3903,-0.3911,-0.3929,-0.394,-0.3958,-0.3968,-0.398,-0.3994,-0.4004,-0.4012,-0.4027,-0.4027,-0.4034,-0.4043,-0.4043,-0.4044,-0.4052,-0.4041,-0.4026,-0.4025,-0.4046,-0.4046,-0.4046,0,-0.3822,-0.3847,-0.3859,-0.3868,-0.3897,-0.3902,-0.3914,-0.3933,-0.3943,-0.3958,-0.3964,-0.398,-0.3989,-0.4,-0.4018,-0.4022,-0.4031,-0.404,-0.4038,-0.4038,-0.4038,-0.4038,-0.4024,-0.4044,-0.4044,-0.4044,-0.4044,0,-0.3811,-0.3819,-0.385,-0.3857,-0.3866,-0.3888,-0.3896,-0.391,-0.3927,-0.3936,-0.3955,-0.3963,-0.3986,-0.3997,-0.4011,-0.4021,-0.4025,-0.4032,-0.4036,-0.403,-0.4029,-0.4034,-0.4035,-0.4044,-0.4044,-0.4044,-0.4044,0,-0.3789,-0.381,-0.3824,-0.3852,-0.3859,-0.3864,-0.3887,-0.3894,-0.3909,-0.3921,-0.3925,-0.3948,-0.3962,-0.3982,-0.4001,-0.4011,-0.4018,-0.4024,-0.4012,-0.4014,-0.4011,-0.4011,-0.3999,-0.3999,-0.402,-0.402,-0.4019,0,-0.3781,-0.3787,-0.3816,-0.3824,-0.3836,-0.3849,-0.3859,-0.3881,-0.3891,-0.3913,-0.3918,-0.3933,-0.3947,-0.3968,-0.3986,-0.4001,-0.4007,-0.4003,-0.401,-0.4004,-0.4007,-0.4006,-0.4006,-0.4,-0.4,-0.4,-0.3999,0,-0.3764,-0.3774,-0.3789,-0.3807,-0.3819,-0.3834,-0.385,-0.3856,-0.3881,-0.3891,-0.3906,-0.3917,-0.3938,-0.3953,-0.397,-0.3982,-0.3995,-0.3997,-0.3998,-0.3992,-0.3984,-0.3988,-0.4007,-0.3997,-0.3997,-0.3998,-0.3998,-0.3998,-0.3748,-0.3754,-0.3776,-0.3791,-0.3806,-0.3821,-0.3829,-0.3846,-0.3859,-0.3879,-0.3891,-0.3905,-0.3924,-0.395,-0.3961,-0.3972,-0.3977,-0.3978,-0.3978,-0.3977,-0.3975,-0.3983,-0.3975,-0.3976,-0.3976,-0.3976,-0.3976,0,-0.3731,-0.3746,-0.376,-0.3783,-0.3795,-0.3808,-0.3826,-0.3835,-0.3848,-0.3865,-0.3879,-0.3896,-0.3911,-0.3931,-0.3947,-0.3952,-0.3959,-0.3956,-0.3955,-0.3958,-0.397,-0.3968,-0.3951,-0.3951,-0.3951,-0.3951,-0.3951,-0.3951,-0.3723,-0.3736,-0.3749,-0.3768,-0.3783,-0.3798,-0.3808,-0.3821,-0.3835,-0.3854,-0.3867,-0.3881,-0.3899,-0.3917,-0.3931,-0.3937,-0.3941,-0.3937,-0.3944,-0.3955,-0.3957,-0.3959,-0.3957,-0.3938,-0.3938,-0.393,-0.393,-0.393]},{"header":{"parameterUnit":"m.s-1","parameterCategory":1,"la1":30.2991,"la2":30.254,"lo1":-89.0895,"lo2":-89.0444,"dy":0.0017,"dx":0.0017,"nx":28,"ny":28,"refTime":"2024-07-14T09:00:00:Z","depth":0,"parameterNumber":3,"parameterNumberName":"V-component_of_WINDS"},"data":[0,0,0,0,0,0,0,0,0,0,0,0,0,0,0,0,0,0,0,0,0,0,0,0,0,0,0,0,0,0,0,0,0,0,0,0,0,0,0,0,0,0,0,0,0,0,0,0,0,0,0,0,0,0,0,0,0,0,1.7341,1.7341,0,1.7318,1.7318,1.7318,1.732,1.7321,1.7321,1.7321,1.7295,1.7294,1.7293,0,0,0,0,0,0,0,0,0,0,0,0,0,1.7384,1.7383,1.7342,1.7341,1.7341,1.7318,1.7318,1.7318,1.732,1.7321,1.7321,1.7322,1.7296,1.7294,1.7293,0,0,0,0,0,0,0,0,0,0,0,0,0,1.7364,1.7383,1.7342,1.734,1.7339,1.7318,1.7318,1.7318,1.732,1.7321,1.7321,1.7322,1.7296,1.7295,1.7293,1.7272,0,0,1.7288,1.7288,0,0,0,0,0,0,0,0,1.7365,1.7362,1.734,1.734,1.7339,1.7323,1.7323,1.7302,1.732,1.7327,1.7321,1.7322,1.7304,1.7302,1.7296,1.7271,1.727,1.7288,1.7287,1.7286,1.7286,0,0,0,0,0,0,0,1.7366,1.7363,1.7332,1.734,1.7339,1.7338,1.7336,1.7319,1.7313,1.7327,1.7327,1.7324,1.7304,1.7298,1.7295,1.7269,1.7288,1.7287,1.7286,1.7285,1.7223,1.7222,0,0,0,0,0,0,1.7369,1.7364,1.7333,1.7332,1.7354,1.7337,1.7335,1.7327,1.7313,1.7311,1.7324,1.7324,1.73,1.7297,1.7295,1.7267,1.7286,1.7285,1.7284,1.7223,1.7222,1.7222,0,0,0,0,0,0,1.737,1.7366,1.7334,1.7348,1.7344,1.7336,1.7328,1.7327,1.7321,1.7311,1.7309,1.7319,1.73,1.7297,1.7277,1.7266,1.7284,1.7283,1.7224,1.7223,1.7222,1.7213,0,0,0,0,0,0,1.7371,1.7366,1.7359,1.7348,1.7343,1.7318,1.7327,1.7326,1.7318,1.7319,1.7306,1.7304,1.73,1.7279,1.7276,1.7264,1.7282,1.7225,1.7224,1.7222,1.7214,1.7212,1.721,0,0,0,0,0,1.7372,1.7358,1.7359,1.7355,1.7334,1.7318,1.7315,1.7312,1.7317,1.7309,1.7302,1.7304,1.7268,1.7277,1.7273,1.7261,1.7226,1.7224,1.7223,1.7215,1.7212,1.721,0,0,0,0,0,0,1.7368,1.7356,1.7357,1.7339,1.7329,1.7318,1.7308,1.7309,1.7297,1.7298,1.7294,1.729,1.727,1.7264,1.7274,1.7239,1.7248,1.7245,1.7244,1.7241,1.7238,1.724,1.728,0,0,0,0,0,1.7365,1.7353,1.7343,1.7328,1.7323,1.7316,1.7309,1.7307,1.7297,1.7292,1.7284,1.7273,1.7259,1.7249,1.7236,1.7214,1.7209,1.7203,1.7201,1.7199,1.7196,1.7181,1.7177,1.7216,1.7216,1.7216,0,0,1.7358,1.735,1.7343,1.7327,1.7319,1.7305,1.7313,1.7299,1.7288,1.729,1.7271,1.7264,1.7251,1.7229,1.7219,1.7223,1.7184,1.7197,1.7195,1.7194,1.7179,1.7175,1.7172,1.7215,1.7215,1.7216,0,0,1.7339,1.7333,1.7318,1.731,1.7298,1.7293,1.729,1.7278,1.7274,1.7255,1.7255,1.7241,1.7218,1.7208,1.7199,1.7174,1.7174,1.717,1.7157,1.7142,1.7139,1.7136,1.7125,1.7121,1.7167,1.7167,1.7167,0,1.7332,1.7313,1.731,1.7296,1.7287,1.7288,1.7272,1.7264,1.7248,1.7242,1.7247,1.7215,1.7207,1.7181,1.7175,1.7169,1.7163,1.7171,1.714,1.7137,1.7135,1.7124,1.712,1.7167,1.7167,1.7167,1.7167,0,1.7304,1.729,1.7279,1.7264,1.7254,1.7239,1.7233,1.7223,1.7222,1.7216,1.7194,1.7184,1.7167,1.7161,1.716,1.7135,1.7137,1.7141,1.715,1.713,1.712,1.7116,1.7166,1.7166,1.7166,1.7166,0,0,1.7281,1.7264,1.726,1.7252,1.7238,1.7226,1.721,1.7194,1.7185,1.7173,1.7158,1.7137,1.714,1.713,1.7127,1.7115,1.7092,1.712,1.7119,1.7113,1.706,1.7056,1.7051,1.7092,1.7092,1.7091,1.706,0,1.7259,1.7232,1.7228,1.7203,1.7189,1.7188,1.7174,1.7162,1.7156,1.7142,1.7135,1.7119,1.7125,1.7119,1.7106,1.7097,1.7081,1.71,1.7076,1.7075,1.7078,1.7046,1.7043,1.7014,1.7057,1.7056,1.7055,0,1.7231,1.7218,1.7191,1.7177,1.7171,1.7158,1.7141,1.7129,1.7115,1.7111,1.7099,1.7098,1.7078,1.7088,1.706,1.7073,1.7063,1.7057,1.7055,1.7052,1.7063,1.704,1.7006,1.7001,1.7049,1.705,1.705,0,1.7215,1.7191,1.7171,1.7165,1.7148,1.7139,1.7131,1.7118,1.7108,1.7093,1.7086,1.7069,1.7059,1.7045,1.7038,1.7046,1.7009,1.7019,1.7003,1.7003,1.6995,1.6995,1.6956,1.6991,1.6991,1.6991,1.6991,0,1.719,1.7173,1.7164,1.7151,1.7131,1.7127,1.7106,1.7099,1.7087,1.7071,1.707,1.7056,1.7048,1.7031,1.7025,1.7001,1.6997,1.6992,1.699,1.6991,1.6991,1.6983,1.6984,1.699,1.699,1.699,1.6991,0,1.7169,1.7162,1.714,1.7126,1.7122,1.7107,1.7094,1.7081,1.7074,1.7055,1.705,1.7039,1.7019,1.701,1.6986,1.6982,1.6953,1.6954,1.6958,1.6957,1.6941,1.6942,1.6894,1.6887,1.6928,1.6928,1.6927,0,1.7153,1.7139,1.7123,1.7113,1.7106,1.709,1.7079,1.7073,1.7061,1.7043,1.7031,1.7012,1.6995,1.6963,1.6952,1.6932,1.6931,1.6916,1.6928,1.6929,1.6928,1.6928,1.6926,1.6913,1.6913,1.6913,1.6912,0,1.7124,1.7121,1.7106,1.7089,1.7077,1.7063,1.705,1.7041,1.7032,1.7019,1.6999,1.6986,1.6961,1.694,1.6919,1.691,1.6908,1.6908,1.6903,1.6903,1.6905,1.6902,1.695,1.6909,1.691,1.691,1.691,1.691,1.7104,1.7091,1.7077,1.706,1.7049,1.7036,1.7022,1.7013,1.6997,1.6976,1.6973,1.695,1.6934,1.6906,1.6895,1.6876,1.688,1.6873,1.6871,1.6869,1.6867,1.691,1.6873,1.6873,1.6873,1.6873,1.6873,0,1.7073,1.7064,1.7048,1.7029,1.7015,1.7016,1.7,1.6988,1.6969,1.6954,1.6938,1.6913,1.6892,1.6878,1.6857,1.6844,1.6842,1.6838,1.6838,1.6835,1.6866,1.6872,1.6839,1.6839,1.6839,1.6839,1.6839,1.6839,1.7056,1.7034,1.7029,1.7,1.699,1.6969,1.696,1.6946,1.6934,1.6907,1.689,1.6881,1.6866,1.6843,1.6823,1.6819,1.681,1.6805,1.6801,1.683,1.6834,1.6837,1.6842,1.6804,1.6804,1.6772,1.6772,1.6771]}]]